Preview of NWS' New Version of Forecast
This preview is not operational and should not be used for support decisions.

Regional Weather Roundup (RWR)

Issued by Gray - Portland, ME (GYX)

                            
000
ASUS41 KGYX 210405
RWRGYX
WEATHER ROUNDUP FOR MAINE AND NEW HAMPSHIRE
NATIONAL WEATHER SERVICE GRAY ME
1200 AM EDT WED AUG 21 2019

MEZ002-005-006-010-012-015-018-020-021-024-026-027-029-210500-
MAINE
  
CITY           SKY/WX    TMP DP  RH WIND       PRES   REMARKS
PORTLAND       FAIR      67  57  70 SW3       30.05R                  
SANFORD        FAIR      57  56  96 CALM      30.05S                  
BAR HARBOR     FAIR      65  58  78 SW7       30.05R                  
WISCASSET      FAIR      58  56  93 CALM      30.06R                  
ROCKLAND       FAIR      59  58  96 W3        30.05R                  
FRYEBURG       FAIR      57  56  96 CALM      30.04F                  
LEWISTONAUBURN FAIR      60  58  92 CALM      30.04S                  
AUGUSTA        FAIR      64  56  75 S6        30.04S                  
WATERVILLE     FAIR      62  57  83 S3        30.01F                  
BANGOR         FAIR      64  59  83 S6        30.03S                  
GREENVILLE     NOT AVBL                                               
MILLINOCKET    FAIR      62  59  90 CALM      30.02S                  
HOULTON        FAIR      60  55  83 S5        29.99S                  
PRESQUE ISLE   FAIR      59  55  87 SW6       29.99S                  
FRENCHVILLE    FAIR      64  52  64 W13       29.97S                  
CARIBOU        FAIR      63  53  70 CALM      29.98S                  
$$

NHZ002-005-008-009-011-012-014-210500-
NEW HAMPSHIRE
  
CITY           SKY/WX    TMP DP  RH WIND       PRES   REMARKS
PORTSMOUTH     PTCLDY    64  59  83 CALM      30.03R                  
ROCHESTER      FAIR      64  59  83 CALM      30.04S                  
NASHUA         FAIR      65  63  93 CALM      30.05S                  
MANCHESTER     FAIR      70  60  70 SE5       30.03S                  
CONCORD        FAIR      60  58  92 E3        30.04F                  
LACONIA        FAIR      62  61  96 CALM      30.06R                  
PLYMOUTH       FOG       57  56  95 CALM      30.05F VSB 1/2          
BERLIN         NOT AVBL                                               
WHITEFIELD     LGT RAIN  54  51  90 CALM      30.05F                  
JAFFREY        FAIR      61  58  90 CALM      30.08F                  
KEENE          FAIR      61  60  97 CALM      30.06S                  
LEBANON        FAIR      59  54  83 CALM      30.04F                  
MT WASHINGTON  PTCLDY    52  45  76 W13         N/A                   
$$

VTZ005-007-008-210500-
VERMONT
  
CITY           SKY/WX    TMP DP  RH WIND       PRES   REMARKS
ST JOHNSBURY     N/A     60  59  96 MISG      30.02S                  
MONTPELIER     FAIR      58  55  90 CALM      30.08S                  
BURLINGTON     FAIR      70  56  61 S5        30.00S                  
$$

MAZ007-012-024-CTZ003-RIZ002-NYZ038-NYZ072-210500-
SOUTHERN NEW ENGLAND AND NY
  
CITY           SKY/WX    TMP DP  RH WIND       PRES   REMARKS
BOSTON         MOCLDY    73  63  70 SE5       30.04F                  
WORCESTER      FAIR      69  57  65 SW6       30.08F                  
NANTUCKET      FAIR      65  63  93 S5        30.08R                  
PROVIDENCE     FAIR      70  64  81 S3        30.06S                  
HARTFORD       FAIR      71  64  78 S5        30.03F                  
ALBANY         FAIR      71  65  81 CALM      30.02S                  
NEW YORK CITY  FAIR      80  69  69 VRB6      30.02F                  
$$

ANZ081-ANZ082-ANZ150-NHZ014-MEZ023>029-210500-
COASTAL MARINE OBSERVATIONS
  
STATION/POSITION TIME  TEMP    WIND        PRES    WAVE
                       AIR SEA DIR/SP/G            HT/PER
                 (UTC) (F)     (DEG/KT/KT) (MB)    (FT/S)
MATINICUS ROCK   0350   65                 1017.1R
ISLE OF SHOALS   0300   69     180/ 15/ 16 1016.5S
JEFFREYS LEDGE   0338      66                N/A     2/12
CASHES LEDGE BUO 0350   66 64  190/  8/  8 1017.9R   2/ 8
GEORGES BANK BUO 0350   66 70  280/  4/  6 1019.3R   2/ 8
$$

.............KEY..............
   WCI - WIND CHILL
   TC  - TEMPERATURE IN CELSIUS
   VSB - VISIBILITY IN MILES
   HX  - HEAT INDEX
   FAIR- INDICATES FEW OR NO CLOUDS BELOW 12,000 FT, WITH NO 
         SIGNIFICANT WEATHER AND/OR OBSTRUCTIONS TO VISIBILITY.